TimeCST,TemperatureF,Dew PointF,Humidity,Sea Level PressureIn,VisibilityMPH,Wind Direction,Wind SpeedMPH,Gust SpeedMPH,PrecipitationIn,Events,Conditions,WindDirDegrees,DateUTC
12:26 AM,42.8,39.2,87,30.07,7.0,North,9.2,-,N/A,,Overcast,10,2013-01-01 06:26:00
12:52 AM,42.1,37.0,82,30.06,10.0,North,8.1,-,N/A,,Overcast,10,2013-01-01 06:52:00
1:05 AM,42.8,37.4,81,30.09,10.0,North,11.5,-,N/A,,Overcast,360,2013-01-01 07:05:00
1:52 AM,37.9,33.1,83,30.08,10.0,North,11.5,-,N/A,,Overcast,360,2013-01-01 07:52:00
2:52 AM,36.0,28.9,76,30.09,10.0,North,9.2,-,N/A,,Overcast,350,2013-01-01 08:52:00
3:52 AM,35.1,28.0,76,30.11,10.0,North,11.5,-,N/A,,Overcast,360,2013-01-01 09:52:00
4:47 AM,33.8,26.6,75,30.14,10.0,North,17.3,-,N/A,,Overcast,350,2013-01-01 10:47:00
4:52 AM,33.1,27.0,78,30.13,10.0,North,13.8,-,N/A,,Overcast,360,2013-01-01 10:52:00
5:52 AM,33.1,26.1,75,30.15,10.0,NNW,11.5,-,N/A,,Overcast,340,2013-01-01 11:52:00
6:52 AM,32.0,25.0,75,30.18,10.0,North,11.5,-,N/A,,Overcast,360,2013-01-01 12:52:00
7:52 AM,30.9,25.0,79,30.22,10.0,NNW,12.7,-,N/A,,Mostly Cloudy,340,2013-01-01 13:52:00
8:52 AM,32.0,24.1,73,30.26,10.0,NNW,12.7,-,N/A,,Clear,340,2013-01-01 14:52:00
9:52 AM,35.1,25.0,67,30.26,10.0,North,11.5,-,N/A,,Clear,350,2013-01-01 15:52:00
10:52 AM,36.0,24.1,62,30.27,10.0,NNW,11.5,-,N/A,,Clear,340,2013-01-01 16:52:00
11:52 AM,37.9,24.1,57,30.27,10.0,NNW,13.8,-,N/A,,Clear,340,2013-01-01 17:52:00
12:52 PM,39.9,23.0,51,30.23,10.0,NW,15.0,19.6,N/A,,Clear,310,2013-01-01 18:52:00
1:52 PM,42.1,23.0,47,30.20,10.0,NNW,13.8,-,N/A,,Clear,330,2013-01-01 19:52:00
2:52 PM,42.1,21.0,43,30.21,10.0,NNW,12.7,-,N/A,,Clear,330,2013-01-01 20:52:00
3:52 PM,42.1,21.0,43,30.22,10.0,NNW,9.2,-,N/A,,Clear,340,2013-01-01 21:52:00
4:52 PM,39.9,19.9,45,30.24,10.0,NNE,8.1,-,N/A,,Clear,20,2013-01-01 22:52:00
5:52 PM,37.0,19.9,50,30.25,10.0,North,5.8,-,N/A,,Clear,10,2013-01-01 23:52:00
6:52 PM,35.1,21.0,57,30.26,10.0,North,6.9,-,N/A,,Clear,10,2013-01-02 00:52:00
7:52 PM,34.0,21.0,59,30.28,10.0,NNE,5.8,-,N/A,,Clear,20,2013-01-02 01:52:00
8:52 PM,32.0,21.0,64,30.29,10.0,NNE,5.8,-,N/A,,Clear,20,2013-01-02 02:52:00
9:52 PM,30.9,21.0,67,30.30,10.0,NE,4.6,-,N/A,,Clear,40,2013-01-02 03:52:00
10:52 PM,28.9,19.9,69,30.32,10.0,East,3.5,-,N/A,,Clear,90,2013-01-02 04:52:00
11:52 PM,28.9,21.9,75,30.33,10.0,Calm,Calm,-,N/A,,Clear,0,2013-01-02 05:52:00